Weather History for KSJS - April, 2014

Change the Weather History Date:

Thursday, April 10, 2014

  Actual Average Record
Temperature  
Mean Temperature 60 °F -  
Max Temperature 75 °F - - ()
Min Temperature 45 °F - - ()
Degree Days  
Heating Degree Days 5    
Growing Degree Days 10 (Base 50)    
Moisture  
Dew Point 33 °F    
Average Humidity 37    
Maximum Humidity 60    
Minimum Humidity 21    
Precipitation  
Precipitation 0.00 in - - ()
Sea Level Pressure  
Sea Level Pressure 30.08 in    
Wind  
Wind Speed 7 mph (SSW)    
Max Wind Speed 16 mph    
Max Gust Speed 24 mph    
Visibility 10 miles    
Events      
Averages and records for this station are not official NWS values.
T = Trace of Precipitation, MM = Missing Value Source: NWS Daily Summary

Daily Weather History Graph

Daily Weather History Graph

Search for Another Location

Airport or City:

Trip Planner

Search our weather history database for the weather conditions in past years. The results will help you decide how hot, cold, wet, or windy it might be!

Date:

Astronomy

Apr. 10, 2014 Rise Set
Actual Time 7:02 AM EDT 8:01 PM EDT
Civil Twilight 6:35 AM EDT 8:28 PM EDT
Nautical Twilight 6:03 AM EDT 9:00 PM EDT
Astronomical Twilight 5:31 AM EDT 9:33 PM EDT
Moon 3:48 PM EDT (4/10) 4:20 AM EDT (4/10)
Length of Visible Light 13h 52m
Length of Day
12h 59m
Waxing Gibbous, 79% of the Moon is Illuminated
Apr 10
Waxing Gibbous
Apr 15
Full
Apr 22
Last Quarter
Apr 29
New
May 6
First Quarter

Hourly Weather History & Observations

Time (EDT) Temp. Windchill Dew Point Humidity Pressure Visibility Wind Dir Wind Speed Gust Speed Precip Events Conditions
12:15 AM 50.5 °F - 30.7 °F 47% 30.10 in 10.0 mi Calm Calm - N/A   Clear
12:35 AM 50.2 °F - 31.1 °F 48% 30.10 in 10.0 mi South 3.5 mph - N/A   Clear
12:55 AM 49.8 °F - 30.9 °F 48% 30.10 in 10.0 mi SSW 3.5 mph - N/A   Clear
1:35 AM 50.0 °F - 30.0 °F 46% 30.10 in 7.0 mi SSW 4.6 mph - N/A   Clear
1:55 AM 49.8 °F - 30.2 °F 47% 30.11 in 10.0 mi SSW 4.6 mph - N/A   Clear
2:15 AM 47.8 °F - 31.6 °F 53% 30.11 in 10.0 mi South 3.5 mph - N/A   Clear
2:35 AM 48.2 °F - 30.9 °F 51% 30.10 in 10.0 mi Calm Calm - N/A   Clear
2:55 AM 47.7 °F - 31.1 °F 53% 30.10 in 10.0 mi Calm Calm - N/A   Clear
3:15 AM 47.3 °F - 31.1 °F 53% 30.10 in 10.0 mi South 3.5 mph - N/A   Clear
3:35 AM 47.3 °F - 31.1 °F 53% 30.11 in 10.0 mi SSW 3.5 mph - N/A   Clear
3:55 AM 46.8 °F - 31.3 °F 55% 30.11 in 10.0 mi SSW 4.6 mph - N/A   Clear
4:15 AM 46.4 °F 45.2 °F 31.6 °F 56% 30.11 in 10.0 mi SSW 3.5 mph - N/A   Clear
4:55 AM 46.4 °F 44.3 °F 31.6 °F 56% 30.11 in 10.0 mi SSW 4.6 mph - N/A   Clear
5:15 AM 46.4 °F 43.5 °F 31.6 °F 56% 30.12 in 10.0 mi SSW 5.8 mph - N/A   Clear
5:35 AM 46.4 °F 43.5 °F 31.8 °F 57% 30.12 in 10.0 mi South 5.8 mph - N/A   Clear
5:55 AM 45.9 °F 42.9 °F 31.8 °F 58% 30.12 in 10.0 mi South 5.8 mph - N/A   Clear
6:15 AM 45.7 °F 42.7 °F 32.0 °F 59% 30.13 in 10.0 mi South 5.8 mph - N/A   Clear
6:35 AM 45.5 °F 42.5 °F 32.0 °F 59% 30.14 in 10.0 mi SSW 5.8 mph - N/A   Clear
6:55 AM 45.0 °F 41.8 °F 32.0 °F 60% 30.14 in 10.0 mi South 5.8 mph - N/A   Clear
7:15 AM 45.5 °F 43.2 °F 32.0 °F 59% 30.15 in 10.0 mi South 4.6 mph - N/A   Clear
7:35 AM 46.0 °F 43.1 °F 32.4 °F 59% 30.17 in 10.0 mi South 5.8 mph - N/A   Clear
8:15 AM 48.7 °F - 33.4 °F 56% 30.17 in 10.0 mi South 5.8 mph - N/A   Clear
8:35 AM 50.2 °F - 33.8 °F 53% 30.18 in 10.0 mi South 6.9 mph - N/A   Clear
8:55 AM 51.8 °F - 34.0 °F 51% 30.18 in 10.0 mi South 8.1 mph - N/A   Clear
9:15 AM 53.6 °F - 34.7 °F 49% 30.18 in 10.0 mi SSW 6.9 mph - N/A   Clear
9:35 AM 54.9 °F - 34.3 °F 46% 30.17 in 10.0 mi SSW 9.2 mph - N/A   Clear
9:55 AM 56.3 °F - 34.5 °F 44% 30.17 in 10.0 mi South 11.5 mph - N/A   Clear
10:15 AM 58.1 °F - 35.2 °F 42% 30.17 in 10.0 mi South 12.7 mph - N/A   Clear
10:35 AM 60.1 °F - 35.4 °F 40% 30.17 in 10.0 mi SSW 8.1 mph - N/A   Clear
10:55 AM 61.3 °F - 35.4 °F 38% 30.17 in 10.0 mi SW 9.2 mph - N/A   Clear
11:15 AM 63.0 °F - 35.1 °F 35% 30.16 in 10.0 mi SW 9.2 mph 16.1 mph N/A   Clear
11:35 AM 64.2 °F - 33.6 °F 32% 30.15 in 10.0 mi WSW 16.1 mph 23.0 mph N/A   Clear
11:55 AM 65.8 °F - 34.0 °F 31% 30.14 in 10.0 mi SSW 10.4 mph 17.3 mph N/A   Clear
12:15 PM 66.4 °F - 32.7 °F 29% 30.13 in 10.0 mi SW 16.1 mph 23.0 mph N/A   Clear
12:35 PM 67.5 °F - 33.3 °F 28% 30.12 in 10.0 mi WSW 10.4 mph 16.1 mph N/A   Clear
12:55 PM 68.4 °F - 33.4 °F 27% 30.11 in 10.0 mi SW 10.4 mph - N/A   Clear
1:15 PM 69.1 °F - 32.5 °F 26% 30.11 in 10.0 mi SW 11.5 mph 18.4 mph N/A   Clear
1:35 PM 69.6 °F - 32.0 °F 25% 30.10 in 10.0 mi SSW 12.7 mph 24.2 mph N/A   Clear
1:55 PM 70.9 °F - 32.7 °F 24% 30.09 in 10.0 mi South 13.8 mph 19.6 mph N/A   Clear
2:15 PM 71.2 °F - 32.9 °F 24% 30.08 in 10.0 mi SW 13.8 mph 18.4 mph N/A   Clear
2:35 PM 72.3 °F - 33.4 °F 24% 30.07 in 10.0 mi South 15.0 mph 19.6 mph N/A   Clear
2:55 PM 72.5 °F - 32.9 °F 23% 30.06 in 10.0 mi South 16.1 mph - N/A   Clear
3:15 PM 73.8 °F - 32.7 °F 22% 30.05 in 10.0 mi SW 13.8 mph 21.9 mph N/A   Clear
3:35 PM 73.0 °F - 32.2 °F 22% 30.04 in 10.0 mi SW 10.4 mph 20.7 mph N/A   Clear
3:55 PM 74.3 °F - 32.7 °F 22% 30.03 in 10.0 mi SW 12.7 mph 20.7 mph N/A   Clear
4:15 PM 74.5 °F - 32.5 °F 22% 30.02 in 10.0 mi SSW 13.8 mph 21.9 mph N/A   Clear
4:35 PM 74.5 °F - 32.5 °F 22% 30.02 in 10.0 mi SW 12.7 mph 18.4 mph N/A   Clear
4:55 PM 75.0 °F - 32.9 °F 21% 30.00 in 10.0 mi SW 15.0 mph 20.7 mph N/A   Clear
5:15 PM 75.4 °F - 33.1 °F 21% 30.00 in 10.0 mi SSW 10.4 mph 21.9 mph N/A   Clear
5:35 PM 74.8 °F - 32.9 °F 22% 30.00 in 10.0 mi SW 12.7 mph 20.7 mph N/A   Clear
5:55 PM 73.9 °F - 33.4 °F 23% 29.99 in 10.0 mi SW 13.8 mph 20.7 mph N/A   Clear
6:15 PM 73.6 °F - 33.1 °F 23% 29.99 in 10.0 mi SW 11.5 mph 20.7 mph N/A   Clear
6:35 PM 73.4 °F - 32.9 °F 23% 30.00 in 10.0 mi SSW 10.4 mph 17.3 mph N/A   Clear
6:55 PM 72.9 °F - 33.8 °F 24% 29.99 in 10.0 mi SSW 12.7 mph 19.6 mph N/A   Clear
7:15 PM 72.1 °F - 34.3 °F 25% 30.00 in 10.0 mi SSW 8.1 mph - N/A   Clear
7:35 PM 72.1 °F - 34.0 °F 25% 30.00 in 10.0 mi SW 15.0 mph 21.9 mph N/A   Clear
7:55 PM 71.2 °F - 33.8 °F 25% 30.00 in 10.0 mi SW 11.5 mph 20.7 mph N/A   Clear
8:15 PM 70.3 °F - 34.2 °F 26% 30.01 in 10.0 mi SW 11.5 mph - N/A   Clear
8:35 PM 70.5 °F - 34.2 °F 26% 30.01 in 10.0 mi SW 10.4 mph 17.3 mph N/A   Clear
8:55 PM 70.0 °F - 34.2 °F 27% 30.02 in 10.0 mi SSW 13.8 mph - N/A   Clear
9:15 PM 69.8 °F - 34.0 °F 27% 30.02 in 10.0 mi SW 15.0 mph 19.6 mph N/A   Clear
9:35 PM 69.1 °F - 34.0 °F 27% 30.03 in 10.0 mi SSW 11.5 mph 18.4 mph N/A   Clear
9:55 PM 68.9 °F - 33.3 °F 27% 30.04 in 10.0 mi SSW 11.5 mph - N/A   Clear
10:15 PM 68.9 °F - 32.9 °F 26% 30.04 in 10.0 mi SSW 12.7 mph 18.4 mph N/A   Clear
10:35 PM 68.4 °F - 32.7 °F 27% 30.04 in 10.0 mi SSW 12.7 mph - N/A   Clear
10:55 PM 68.0 °F - 32.4 °F 27% 30.05 in 10.0 mi SW 11.5 mph - N/A   Clear
11:15 PM 67.3 °F - 32.2 °F 27% 30.05 in 10.0 mi SW 5.8 mph - N/A   Clear
11:35 PM 67.1 °F - 32.0 °F 27% 30.05 in 10.0 mi SW 9.2 mph - N/A   Clear
11:55 PM 67.1 °F - 32.0 °F 27% 30.04 in 10.0 mi SSW 10.4 mph - N/A   Clear